sat.trackr.live / text

‹ back to catalog

STARLINK-32711

NORAD 62435 · 2024-251D

PAYLOAD ACTIVE UNKNOWN

§ Identity

Operator
Country
US
Launch date
2024-12-29
Launch site
AFWTR
Launch vehicle
Mass (kg)
RCS (m²)

Purposes: comms

External: N2YO · Heavens-Above · Gunter

§ Orbital elements

Epoch: 2026-05-24T22:54:24.339168Z

Period
94.10 min
Inclination
53.1603°
Eccentricity
0.0001053
Mean motion
15.30206232 rev/d
Perigee alt
474.5 km
Apogee alt
475.9 km
Semi-major
6,853.3 km
B*
9.9264e-4
RAAN
341.1505°
Arg perigee
83.5967°
Mean anomaly
276.5154°
Rev number
7,962

§ Raw data

STARLINK-327111 62435U 24251D   26144.95444837  .00029161  00000+0  99264-3 0  99962 62435  53.1603 341.1505 0001053  83.5967 276.5154 15.30206232 79624

JSON: /api/v1/satellites/62435 · /tle

For live sub-satellite position, see the globe view (requires WebGL).

§ Visibility from observer

Set your observer location to see the next 7 days of passes ≥ 10°. The values pass through the URL so the page stays shareable.

No JS? Fill the form by hand. The geolocation button needs JavaScript.